Time,TemperatureF,DewpointF,PressureIn,WindDirection,WindDirectionDegrees,WindSpeedMPH,WindSpeedGustMPH,Humidity,HourlyPrecipIn,Conditions,Clouds,dailyrainin,SoftwareType,DateUTC
2013-03-27 00:22:00,46.0,32.0,29.88,North,0,0.0,3.0,58,0.00,,,-99.99,,2013-03-27 07:22:00,
2013-03-27 00:32:00,46.0,32.0,29.88,North,0,0.0,3.0,58,0.00,,,-99.99,,2013-03-27 07:32:00,
2013-03-27 00:42:00,46.0,32.0,29.88,North,0,0.0,3.0,58,0.00,,,-99.99,,2013-03-27 07:42:00,
2013-03-27 00:53:00,46.0,32.0,29.88,North,0,0.0,3.0,58,0.00,,,-99.99,,2013-03-27 07:53:00,
2013-03-27 01:22:00,46.0,32.0,29.87,North,0,0.0,5.0,58,0.00,,,-99.99,,2013-03-27 08:22:00,
2013-03-27 01:32:00,46.0,32.0,29.87,North,0,0.0,5.0,58,0.00,,,-99.99,,2013-03-27 08:32:00,
2013-03-27 01:43:00,46.0,32.0,29.87,North,0,0.0,5.0,58,0.00,,,-99.99,,2013-03-27 08:43:00,
2013-03-27 01:52:00,46.0,32.0,29.87,North,0,0.0,5.0,58,0.00,,,-99.99,,2013-03-27 08:52:00,
2013-03-27 02:22:00,46.0,33.0,29.86,North,0,0.0,5.0,61,0.00,,,-99.99,,2013-03-27 09:22:00,
2013-03-27 02:32:00,46.0,33.0,29.86,North,0,0.0,5.0,61,0.00,,,-99.99,,2013-03-27 09:32:00,
2013-03-27 02:42:00,46.0,33.0,29.86,North,0,0.0,5.0,61,0.00,,,-99.99,,2013-03-27 09:42:00,
2013-03-27 02:52:00,46.0,33.0,29.86,North,0,0.0,5.0,61,0.00,,,-99.99,,2013-03-27 09:52:00,
2013-03-27 03:22:00,46.0,31.0,29.85,East,80,3.0,6.0,56,0.00,,,-99.99,,2013-03-27 10:22:00,
2013-03-27 03:32:00,46.0,31.0,29.85,East,80,3.0,6.0,56,0.00,,,-99.99,,2013-03-27 10:32:00,
2013-03-27 03:42:00,46.0,31.0,29.85,East,80,3.0,6.0,56,0.00,,,-99.99,,2013-03-27 10:42:00,
2013-03-27 03:52:00,46.0,31.0,29.85,East,80,3.0,6.0,56,0.00,,,-99.99,,2013-03-27 10:52:00,
2013-03-27 04:22:00,45.0,30.0,29.84,North,0,0.0,3.0,56,0.00,,,-99.99,,2013-03-27 11:22:00,
2013-03-27 04:32:00,45.0,30.0,29.84,North,0,0.0,3.0,56,0.00,,,-99.99,,2013-03-27 11:32:00,
2013-03-27 04:42:00,45.0,30.0,29.84,North,0,0.0,3.0,56,0.00,,,-99.99,,2013-03-27 11:42:00,
2013-03-27 04:52:00,45.0,30.0,29.84,North,0,0.0,3.0,56,0.00,,,-99.99,,2013-03-27 11:52:00,
2013-03-27 05:22:00,43.0,28.0,29.85,East,80,3.0,7.0,56,0.00,,,-99.99,,2013-03-27 12:22:00,
2013-03-27 05:32:00,43.0,28.0,29.85,East,80,3.0,7.0,56,0.00,,,-99.99,,2013-03-27 12:32:00,
2013-03-27 05:42:00,43.0,28.0,29.85,East,80,3.0,7.0,56,0.00,,,-99.99,,2013-03-27 12:42:00,
2013-03-27 05:52:00,43.0,28.0,29.85,East,80,3.0,7.0,56,0.00,,,-99.99,,2013-03-27 12:52:00,
2013-03-27 06:22:00,43.0,28.0,29.86,East,80,3.0,6.0,56,0.00,,,-99.99,,2013-03-27 13:22:00,
2013-03-27 06:32:00,43.0,28.0,29.86,East,80,3.0,6.0,56,0.00,,,-99.99,,2013-03-27 13:32:00,
2013-03-27 06:42:00,43.0,28.0,29.86,East,80,3.0,6.0,56,0.00,,,-99.99,,2013-03-27 13:42:00,
2013-03-27 06:52:00,43.0,28.0,29.86,East,80,3.0,6.0,56,0.00,,,-99.99,,2013-03-27 13:52:00,
2013-03-27 07:22:00,44.0,30.0,29.87,East,80,2.0,6.0,58,0.00,,,-99.99,,2013-03-27 14:22:00,
2013-03-27 07:32:00,44.0,30.0,29.87,East,80,2.0,6.0,58,0.00,,,-99.99,,2013-03-27 14:32:00,
2013-03-27 07:42:00,44.0,30.0,29.87,East,80,2.0,6.0,58,0.00,,,-99.99,,2013-03-27 14:42:00,
2013-03-27 07:52:00,44.0,30.0,29.87,East,80,2.0,6.0,58,0.00,,,-99.99,,2013-03-27 14:52:00,
2013-03-27 08:22:00,47.0,34.0,29.89,North,0,0.0,6.0,61,0.00,,,-99.99,,2013-03-27 15:22:00,
2013-03-27 08:33:00,47.0,34.0,29.89,North,0,0.0,6.0,61,0.00,,,-99.99,,2013-03-27 15:33:00,
2013-03-27 08:42:00,47.0,34.0,29.89,North,0,0.0,6.0,61,0.00,,,-99.99,,2013-03-27 15:42:00,
2013-03-27 08:52:00,47.0,34.0,29.89,North,0,0.0,6.0,61,0.00,,,-99.99,,2013-03-27 15:52:00,
2013-03-27 09:22:00,54.0,36.0,29.90,North,-999,0.0,0.0,50,0.00,,,-99.99,,2013-03-27 16:22:00,
2013-03-27 09:32:00,54.0,36.0,29.90,North,-999,0.0,0.0,50,0.00,,,-99.99,,2013-03-27 16:32:00,
2013-03-27 09:42:00,54.0,36.0,29.90,North,-999,0.0,0.0,50,0.00,,,-99.99,,2013-03-27 16:42:00,
2013-03-27 09:52:00,54.0,36.0,29.90,North,-999,0.0,0.0,50,0.00,,,-99.99,,2013-03-27 16:52:00,
2013-03-27 10:22:00,59.0,36.0,29.91,East,90,2.0,6.0,42,0.00,,,-99.99,,2013-03-27 17:22:00,
2013-03-27 10:32:00,59.0,36.0,29.91,East,90,2.0,6.0,42,0.00,,,-99.99,,2013-03-27 17:32:00,
2013-03-27 10:44:00,59.0,36.0,29.91,East,90,2.0,6.0,42,0.00,,,-99.99,,2013-03-27 17:44:00,
2013-03-27 10:52:00,59.0,36.0,29.91,East,90,2.0,6.0,42,0.00,,,-99.99,,2013-03-27 17:52:00,
2013-03-27 11:22:00,61.0,33.0,29.92,WSW,250,6.0,9.0,35,0.00,,,-99.99,,2013-03-27 18:22:00,
2013-03-27 11:32:00,61.0,33.0,29.92,WSW,250,6.0,9.0,35,0.00,,,-99.99,,2013-03-27 18:32:00,
2013-03-27 11:42:00,61.0,33.0,29.92,WSW,250,6.0,9.0,35,0.00,,,-99.99,,2013-03-27 18:42:00,
2013-03-27 11:52:00,61.0,33.0,29.92,WSW,250,6.0,9.0,35,0.00,,,-99.99,,2013-03-27 18:52:00,
2013-03-27 12:21:00,63.0,34.0,29.92,WNW,300,7.0,12.0,34,0.00,,,-99.99,,2013-03-27 19:21:00,
2013-03-27 12:32:00,63.0,34.0,29.92,WNW,300,7.0,12.0,34,0.00,,,-99.99,,2013-03-27 19:32:00,
2013-03-27 12:42:00,63.0,34.0,29.92,WNW,300,7.0,12.0,34,0.00,,,-99.99,,2013-03-27 19:42:00,
2013-03-27 12:52:00,63.0,34.0,29.92,WNW,300,7.0,12.0,34,0.00,,,-99.99,,2013-03-27 19:52:00,
2013-03-27 13:22:00,64.0,34.0,29.91,West,280,4.0,12.0,33,0.00,,,-99.99,,2013-03-27 20:22:00,
2013-03-27 13:32:00,64.0,34.0,29.91,West,280,4.0,12.0,33,0.00,,,-99.99,,2013-03-27 20:32:00,
2013-03-27 13:42:00,64.0,34.0,29.91,West,280,4.0,12.0,33,0.00,,,-99.99,,2013-03-27 20:42:00,
2013-03-27 13:52:00,64.0,34.0,29.91,West,280,4.0,12.0,33,0.00,,,-99.99,,2013-03-27 20:52:00,
2013-03-27 14:22:00,65.0,37.0,29.91,West,280,5.0,14.0,35,0.00,,,-99.99,,2013-03-27 21:22:00,
2013-03-27 14:32:00,65.0,37.0,29.91,West,280,5.0,14.0,35,0.00,,,-99.99,,2013-03-27 21:32:00,
2013-03-27 14:43:00,65.0,37.0,29.91,West,280,5.0,14.0,35,0.00,,,-99.99,,2013-03-27 21:43:00,
2013-03-27 14:52:00,65.0,37.0,29.91,West,280,5.0,14.0,35,0.00,,,-99.99,,2013-03-27 21:52:00,
2013-03-27 15:23:00,65.0,37.0,29.90,West,270,9.0,14.0,35,0.00,,,-99.99,,2013-03-27 22:23:00,
2013-03-27 15:33:00,65.0,37.0,29.90,West,270,9.0,14.0,35,0.00,,,-99.99,,2013-03-27 22:33:00,
2013-03-27 15:42:00,65.0,37.0,29.90,West,270,9.0,14.0,35,0.00,,,-99.99,,2013-03-27 22:42:00,
2013-03-27 15:52:00,65.0,37.0,29.90,West,270,9.0,14.0,35,0.00,,,-99.99,,2013-03-27 22:52:00,
2013-03-27 16:22:00,64.0,39.0,29.90,West,270,3.0,16.0,40,0.00,,,-99.99,,2013-03-27 23:22:00,
2013-03-27 16:32:00,64.0,39.0,29.90,West,270,3.0,16.0,40,0.00,,,-99.99,,2013-03-27 23:32:00,
2013-03-27 16:42:00,64.0,39.0,29.90,West,270,3.0,16.0,40,0.00,,,-99.99,,2013-03-27 23:42:00,
2013-03-27 16:52:00,64.0,39.0,29.90,West,270,3.0,16.0,40,0.00,,,-99.99,,2013-03-27 23:52:00,
2013-03-27 17:22:00,63.0,44.0,29.90,West,270,8.0,13.0,49,0.00,,,-99.99,,2013-03-28 00:22:00,
2013-03-27 17:32:00,63.0,44.0,29.90,West,270,8.0,13.0,49,0.00,,,-99.99,,2013-03-28 00:32:00,
2013-03-27 17:42:00,63.0,44.0,29.90,West,270,8.0,13.0,49,0.00,,,-99.99,,2013-03-28 00:42:00,
2013-03-27 17:52:00,63.0,44.0,29.90,West,270,8.0,13.0,49,0.00,,,-99.99,,2013-03-28 00:52:00,
2013-03-27 18:22:00,59.0,45.0,29.91,West,280,4.0,10.0,59,0.00,,,-99.99,,2013-03-28 01:22:00,
2013-03-27 18:32:00,59.0,45.0,29.91,West,280,4.0,10.0,59,0.00,,,-99.99,,2013-03-28 01:32:00,
2013-03-27 18:42:00,59.0,45.0,29.91,West,280,4.0,10.0,59,0.00,,,-99.99,,2013-03-28 01:42:00,
2013-03-27 18:52:00,59.0,45.0,29.91,West,280,4.0,10.0,59,0.00,,,-99.99,,2013-03-28 01:52:00,
2013-03-27 19:22:00,54.0,42.0,29.92,North,0,0.0,6.0,64,0.00,,,-99.99,,2013-03-28 02:22:00,
2013-03-27 19:32:00,54.0,42.0,29.92,North,0,0.0,6.0,64,0.00,,,-99.99,,2013-03-28 02:32:00,
2013-03-27 19:42:00,54.0,42.0,29.92,North,0,0.0,6.0,64,0.00,,,-99.99,,2013-03-28 02:42:00,
2013-03-27 19:52:00,54.0,42.0,29.92,North,0,0.0,6.0,64,0.00,,,-99.99,,2013-03-28 02:52:00,
2013-03-27 20:22:00,49.0,41.0,29.93,North,0,0.0,2.0,73,0.00,,,-99.99,,2013-03-28 03:22:00,
2013-03-27 20:33:00,49.0,41.0,29.93,North,0,0.0,2.0,73,0.00,,,-99.99,,2013-03-28 03:33:00,
2013-03-27 20:42:00,49.0,41.0,29.93,North,0,0.0,2.0,73,0.00,,,-99.99,,2013-03-28 03:42:00,
2013-03-27 20:52:00,49.0,41.0,29.93,North,0,0.0,2.0,73,0.00,,,-99.99,,2013-03-28 03:52:00,
2013-03-27 21:22:00,46.0,38.0,29.95,East,80,2.0,6.0,73,0.00,,,-99.99,,2013-03-28 04:22:00,
2013-03-27 21:32:00,46.0,38.0,29.95,East,80,2.0,6.0,73,0.00,,,-99.99,,2013-03-28 04:32:00,
2013-03-27 21:42:00,46.0,38.0,29.95,East,80,2.0,6.0,73,0.00,,,-99.99,,2013-03-28 04:42:00,
2013-03-27 21:52:00,46.0,38.0,29.95,East,80,2.0,6.0,73,0.00,,,-99.99,,2013-03-28 04:52:00,
2013-03-27 22:22:00,45.0,38.0,29.96,East,80,1.0,7.0,75,0.00,,,-99.99,,2013-03-28 05:22:00,
2013-03-27 22:32:00,45.0,38.0,29.96,East,80,1.0,7.0,75,0.00,,,-99.99,,2013-03-28 05:32:00,
2013-03-27 22:42:00,45.0,38.0,29.96,East,80,1.0,7.0,75,0.00,,,-99.99,,2013-03-28 05:42:00,
2013-03-27 22:52:00,45.0,38.0,29.96,East,80,1.0,7.0,75,0.00,,,-99.99,,2013-03-28 05:52:00,
2013-03-27 23:22:00,44.0,38.0,29.97,North,0,0.0,3.0,78,0.00,,,-99.99,,2013-03-28 06:22:00,
2013-03-27 23:32:00,44.0,38.0,29.97,North,0,0.0,3.0,78,0.00,,,-99.99,,2013-03-28 06:32:00,
2013-03-27 23:42:00,44.0,38.0,29.97,North,0,0.0,3.0,78,0.00,,,-99.99,,2013-03-28 06:42:00,
2013-03-27 23:52:00,44.0,38.0,29.97,North,0,0.0,3.0,78,0.00,,,-99.99,,2013-03-28 06:52:00,